When you browse on this site, cookies collect data to enhance your experience and personalize the content and advertising you see.
Visit our Privacy Policy to learn more. By continuing to use the site, you agree to this use of cookies and data.

Hourly Weather Aylesbury

Today, 13 July, Monday

Time Temperature Precipitation Wind Pressure Humidity
00:00 +14°C° 0 mm 1 mps 762 mmHg 80%
01:00 +14°C° 0 mm 2 mps 761 mmHg 79%
02:00 +14°C° 0 mm 2 mps 761 mmHg 77%
03:00 +14°C° 0 mm 2 mps 761 mmHg 76%
04:00 +14°C° 0 mm 2 mps 760 mmHg 76%
05:00 +14°C° 0 mm 2 mps 760 mmHg 77%
06:00 +14°C° 0 mm 2 mps 760 mmHg 77%
07:00 +16°C° 0 mm 3 mps 760 mmHg 73%
08:00 +17°C° 0 mm 3 mps 760 mmHg 68%
09:00 +19°C° 0 mm 4 mps 760 mmHg 64%
10:00 +19°C° 0 mm 4 mps 760 mmHg 63%
11:00 +20°C° 0 mm 4 mps 759 mmHg 63%
12:00 +20°C° 0 mm 4 mps 759 mmHg 63%
13:00 +20°C° 0 mm 4 mps 759 mmHg 64%
14:00 +20°C° 0 mm 5 mps 758 mmHg 65%
15:00 +20°C° 0 mm 5 mps 758 mmHg 67%
16:00 +17°C° 0.3 mm 5 mps 757 mmHg 74%
17:00 +16°C° 0.3 mm 5 mps 757 mmHg 82%
18:00 +14°C° 0.3 mm 4 mps 757 mmHg 90%
19:00 +14°C° 0.2 mm 4 mps 756 mmHg 92%
20:00 +14°C° 0.2 mm 4 mps 756 mmHg 94%
21:00 +14°C° 0.2 mm 4 mps 756 mmHg 96%
22:00 +14°C° 0 mm 3 mps 756 mmHg 96%
23:00 +14°C° 0 mm 3 mps 756 mmHg 96%

Tomorrow, 14 July, Tuesday

Time Temperature Precipitation Wind Pressure Humidity
00:00 +14°C° 0 mm 3 mps 755 mmHg 97%
01:00 +14°C° 0 mm 3 mps 755 mmHg 96%
02:00 +15°C° 0 mm 2 mps 755 mmHg 96%
03:00 +14°C° 0 mm 2 mps 754 mmHg 96%
04:00 +13°C° 0 mm 3 mps 754 mmHg 94%
05:00 +13°C° 0 mm 3 mps 754 mmHg 93%
06:00 +13°C° 0 mm 4 mps 754 mmHg 91%
07:00 +14°C° 0 mm 4 mps 754 mmHg 86%
08:00 +14°C° 0 mm 4 mps 755 mmHg 81%
09:00 +15°C° 0 mm 4 mps 755 mmHg 76%
10:00 +17°C° 0 mm 4 mps 755 mmHg 72%
11:00 +17°C° 0 mm 4 mps 755 mmHg 67%
12:00 +18°C° 0 mm 4 mps 755 mmHg 63%
13:00 +18°C° 0.1 mm 4 mps 754 mmHg 63%
14:00 +18°C° 0.1 mm 4 mps 754 mmHg 64%
15:00 +18°C° 0.1 mm 4 mps 754 mmHg 64%
16:00 +18°C° 0.1 mm 4 mps 754 mmHg 67%
17:00 +18°C° 0.1 mm 4 mps 754 mmHg 69%
18:00 +17°C° 0.1 mm 3 mps 754 mmHg 71%
19:00 +16°C° 0 mm 3 mps 754 mmHg 76%
20:00 +14°C° 0 mm 3 mps 754 mmHg 81%
21:00 +13°C° 0 mm 2 mps 754 mmHg 86%
22:00 +13°C° 0 mm 2 mps 754 mmHg 86%
23:00 +13°C° 0 mm 2 mps 754 mmHg 86%

Day after tomorrow, 15 July, Wednesday

Time Temperature Precipitation Wind Pressure Humidity
00:00 +13°C° 0 mm 2 mps 754 mmHg 87%
01:00 +13°C° 0 mm 2 mps 754 mmHg 87%
02:00 +13°C° 0 mm 2 mps 754 mmHg 87%
03:00 +13°C° 0 mm 2 mps 754 mmHg 88%
04:00 +13°C° 0 mm 2 mps 754 mmHg 89%
05:00 +13°C° 0 mm 2 mps 754 mmHg 89%
06:00 +12°C° 0 mm 3 mps 754 mmHg 90%
07:00 +12°C° 0 mm 3 mps 754 mmHg 90%
08:00 +13°C° 0 mm 3 mps 754 mmHg 89%
09:00 +13°C° 0 mm 3 mps 754 mmHg 89%
10:00 +14°C° 0 mm 3 mps 754 mmHg 86%
11:00 +14°C° 0 mm 3 mps 755 mmHg 84%
12:00 +16°C° 0 mm 3 mps 755 mmHg 81%
13:00 +17°C° 0 mm 3 mps 755 mmHg 79%
14:00 +17°C° 0 mm 3 mps 755 mmHg 77%
15:00 +18°C° 0 mm 3 mps 755 mmHg 75%
16:00 +18°C° 0 mm 3 mps 755 mmHg 78%
17:00 +17°C° 0 mm 3 mps 755 mmHg 80%
18:00 +17°C° 0 mm 2 mps 755 mmHg 83%
19:00 +16°C° 0 mm 2 mps 755 mmHg 85%
20:00 +16°C° 0 mm 2 mps 756 mmHg 86%
21:00 +15°C° 0 mm 2 mps 756 mmHg 88%
22:00 +15°C° 0 mm 2 mps 756 mmHg 88%
23:00 +15°C° 0 mm 2 mps 756 mmHg 88%

16 July, Thursday

Time Temperature Precipitation Wind Pressure Humidity
00:00 +15°C° 0 mm 2 mps 756 mmHg 88%
01:00 +15°C° 0 mm 2 mps 756 mmHg 88%
02:00 +15°C° 0 mm 2 mps 756 mmHg 89%
03:00 +15°C° 0 mm 2 mps 756 mmHg 89%
04:00 +14°C° 0 mm 3 mps 756 mmHg 88%
05:00 +14°C° 0 mm 3 mps 756 mmHg 87%
06:00 +14°C° 0 mm 4 mps 756 mmHg 87%
07:00 +15°C° 0 mm 4 mps 757 mmHg 83%
08:00 +17°C° 0 mm 4 mps 757 mmHg 80%
09:00 +18°C° 0 mm 4 mps 757 mmHg 77%
10:00 +19°C° 0 mm 4 mps 757 mmHg 75%
11:00 +19°C° 0 mm 4 mps 758 mmHg 72%
12:00 +20°C° 0 mm 4 mps 758 mmHg 70%
13:00 +20°C° 0 mm 4 mps 758 mmHg 69%
14:00 +20°C° 0 mm 4 mps 758 mmHg 69%
15:00 +20°C° 0 mm 4 mps 758 mmHg 69%
16:00 +20°C° 0 mm 3 mps 758 mmHg 71%
17:00 +20°C° 0 mm 3 mps 758 mmHg 73%
18:00 +20°C° 0 mm 2 mps 758 mmHg 74%
19:00 +19°C° 0 mm 2 mps 758 mmHg 78%
20:00 +19°C° 0 mm 2 mps 758 mmHg 81%
21:00 +19°C° 0 mm 1 mps 758 mmHg 84%
22:00 +18°C° 0 mm 1 mps 758 mmHg 87%
23:00 +16°C° 0 mm 2 mps 758 mmHg 89%

17 July, Friday

Time Temperature Precipitation Wind Pressure Humidity
00:00 +16°C° 0 mm 2 mps 758 mmHg 92%
01:00 +15°C° 0 mm 2 mps 758 mmHg 92%
02:00 +15°C° 0 mm 2 mps 758 mmHg 93%
03:00 +14°C° 0 mm 2 mps 758 mmHg 94%
04:00 +15°C° 0 mm 2 mps 758 mmHg 93%
05:00 +16°C° 0 mm 1 mps 758 mmHg 92%
06:00 +16°C° 0 mm 1 mps 758 mmHg 91%
07:00 +19°C° 0 mm 1 mps 758 mmHg 85%
08:00 +19°C° 0 mm 2 mps 758 mmHg 80%
09:00 +21°C° 0 mm 2 mps 759 mmHg 74%
10:00 +23°C° 0.1 mm 2 mps 759 mmHg 70%
11:00 +24°C° 0.1 mm 2 mps 759 mmHg 65%
12:00 +25°C° 0.1 mm 2 mps 759 mmHg 61%
13:00 +25°C° 0.1 mm 2 mps 758 mmHg 61%
14:00 +25°C° 0.1 mm 2 mps 758 mmHg 60%
15:00 +26°C° 0.1 mm 2 mps 758 mmHg 60%
16:00 +25°C° 0.1 mm 2 mps 758 mmHg 63%
17:00 +25°C° 0.1 mm 2 mps 758 mmHg 67%
18:00 +25°C° 0.1 mm 2 mps 758 mmHg 70%
19:00 +23°C° 0 mm 2 mps 758 mmHg 75%
20:00 +20°C° 0 mm 2 mps 758 mmHg 79%
21:00 +18°C° 0 mm 2 mps 758 mmHg 84%
22:00 +17°C° 0 mm 2 mps 758 mmHg 87%
23:00 +17°C° 0 mm 2 mps 758 mmHg 90%

18 July, Saturday

Time Temperature Precipitation Wind Pressure Humidity
00:00 +16°C° 0 mm 2 mps 757 mmHg 93%
01:00 +15°C° 0 mm 2 mps 757 mmHg 93%
02:00 +15°C° 0 mm 2 mps 757 mmHg 94%
03:00 +14°C° 0 mm 2 mps 757 mmHg 94%
04:00 +14°C° 0 mm 3 mps 757 mmHg 92%
05:00 +14°C° 0 mm 3 mps 757 mmHg 90%
06:00 +14°C° 0 mm 3 mps 756 mmHg 89%
07:00 +17°C° 0 mm 4 mps 756 mmHg 84%
08:00 +18°C° 0 mm 4 mps 756 mmHg 79%
09:00 +19°C° 0 mm 4 mps 757 mmHg 74%
10:00 +20°C° 0 mm 4 mps 756 mmHg 72%
11:00 +21°C° 0 mm 5 mps 756 mmHg 69%
12:00 +21°C° 0 mm 5 mps 756 mmHg 67%
13:00 +22°C° 0 mm 5 mps 756 mmHg 67%
14:00 +22°C° 0 mm 5 mps 755 mmHg 67%
15:00 +22°C° 0 mm 5 mps 755 mmHg 68%
16:00 +21°C° 0 mm 5 mps 755 mmHg 70%
17:00 +21°C° 0 mm 4 mps 755 mmHg 72%
18:00 +21°C° 0 mm 4 mps 755 mmHg 74%
19:00 +19°C° 0 mm 4 mps 755 mmHg 80%
20:00 +18°C° 0 mm 3 mps 756 mmHg 85%
21:00 +17°C° 0 mm 3 mps 756 mmHg 90%
22:00 +16°C° 0 mm 2 mps 756 mmHg 91%
23:00 +16°C° 0 mm 2 mps 756 mmHg 92%
Show more